Location: Aalen
(48.8330°N, 10.1000°E)
Time: 08:33:30
(UTC+01:00)

N. Korean satellite - Pass Details

Date: 07 December 2022
Orbit: 407 x 442 km, 97.3° (Epoch: 04 February)

Event Time Altitude Azimuth Distance (km) Brightness Sun altitude
Rises 05:39:44 0° 14° (NNE) 2,513 10.2 -21.8°
Reaches altitude 10° 05:41:49 10° 16° (NNE) 1,626 9.3 -21.5°
Maximum altitude 05:45:18 74° 101° (E) 483 6.6 -20.9°
Drops below altitude 10° 05:48:43 10° 188° (S) 1,585 9.2 -20.4°
Sets 05:50:43 0° 190° (S) 2,442 10.2 -20.1°
